Regional Weather Roundup
Issued by NWS

Home | Current Version | Previous Version | Graphics & Text | Print | Product List | Glossary Off
Versions: 1 2 3 4 5 6 7 8 9 10 11 12 13 14 15 16 17 18 19 20 21 22 23 24 25 26 27 28 29 30 31 32 33 34 35 36 37 38 39 40 41 42 43 44 45 46 47 48 49 50

000
ASUS43 KTOP 201908
RWRKS

WEATHER ROUNDUP FOR KANSAS
NATIONAL WEATHER SERVICE GOODLAND KS
200 PM CDT SAT SEP 20 2014

NOTE:  "FAIR" INDICATES FEW OR NO CLOUDS BELOW 12,000 FEET WITH NO
SIGNIFICANT WEATHER AND/OR OBSTRUCTIONS TO VISIBILITY.

KSZ001>006-013>018-027>032-041>047-202000-
NORTHWEST KANSAS

CITY           SKY/WX    TMP DP  RH WIND       PRES   REMARKS
GOODLAND       SUNNY     82  53  36 NE13G25   30.13F
HAYS           SUNNY     84  66  54 E5        29.98S
HILL CITY      SUNNY     87  60  40 NE17G23   30.02S
RUSSELL        SUNNY     85  67  54 VRB3      29.96F
$$

KSZ061>065-074>080-084>089-202000-
SOUTHWEST KANSAS

CITY           SKY/WX    TMP DP  RH WIND       PRES   REMARKS
DODGE CITY     MOSUNNY   89  61  38 SW13      30.01F
ELKHART          N/A     86  63  46 E5          N/A
GARDEN CITY    SUNNY     85  62  46 VRB5      30.02F
GREAT BEND     MOSUNNY   88  64  45 SW9       29.97S
LIBERAL        MOSUNNY   90  63  40 SW7       30.04S
PRATT          SUNNY     90  59  35 SW13G18   30.00F
$$

KSZ066>073-081>083-090>101-202000-
SOUTHEAST KANSAS

CITY           SKY/WX    TMP DP  RH WIND       PRES   REMARKS
CHANUTE        PTSUNNY   81  72  74 S13       30.01F
HUTCHINSON     MOSUNNY   90  64  42 SW14G24   29.97F
MEDICINE LODGE   N/A     89  63  41 S15G21    29.97F
NEWTON         PTSUNNY   88  64  45 SW17      30.01S
PARSONS        MOSUNNY   83  74  74 VRB7      30.03F
WICHITA INTL   MOSUNNY   91  63  39 S10G21    29.96F
WICHITA JABRA  MOSUNNY   88  63  43 S12       29.97F
WICHITA MCCONL MOSUNNY   90  63  41 S16G23    29.98F
WINFIELD       SUNNY     89  67  47 S13G22    30.00F
$$

KSZ007>012-019>026-033>040-048>060-102>105-202000-
NORTHEAST KANSAS

CITY           SKY/WX    TMP DP  RH WIND       PRES   REMARKS
CONCORDIA      PTSUNNY   84  69  60 W6        29.97R
EMPORIA        PTSUNNY   86  69  56 S16       29.98F
LAWRENCE       MOSUNNY   84  68  58 SW13      29.96F
MANHATTAN      SUNNY     90  67  46 SW14      29.95F
MARYSVILLE     CLOUDY    81  70  69 NW8       29.97R
OLATHE IND     MOSUNNY   84  71  65 SW13      29.98F
OLATHE EXE     MOSUNNY   83  69  62 SW12      29.97F
SALINA         MOSUNNY   89  65  44 SW10G17   29.96F
TOPEKA BILLARD MOSUNNY   87  69  54 SW7       29.96S
TOPEKA FORBES  MOSUNNY   88  68  51 SW12      29.97S
$$


USA.gov is the U.S. government's official web portal to all federal, state and local government web resources and services.